Regional Weather Roundup
Issued by NWS

Home | Current Version | Previous Version | Text Only | Print | Product List | Glossary Off
Versions: 1 2 3 4 5 6 7 8 9 10 11 12 13 14 15 16 17 18 19 20 21 22 23 24 25 26 27 28 29 30 31 32 33 34 35 36 37 38 39 40 41 42 43 44 45 46 47 48 49 50

000
ASUS43 KMPX 191501
RWRMN
WEATHER ROUNDUP FOR MINNESOTA
NATIONAL WEATHER SERVICE TWIN CITIES/CHANHASSEN MN
1000 AM CDT THU APR 19 2018


NOTE: "FAIR" INDICATES FEW OR NO CLOUDS BELOW 12,000 FEET WITH NO
SIGNIFICANT WEATHER AND/OR OBSTRUCTIONS TO VISIBILITY. N/A MEANS
CURRENT SKY AND/OR WEATHER CONDITIONS ARE NOT AVAILABLE.

MNZ060>063-068>070-191600-
   Twin Cities Metro

CITY           SKY/WX    TMP DP  RH WIND       PRES   REMARKS
TWIN CITIES    FAIR      44  19  36 CALM      30.46R
ST PAUL        FAIR      39  18  42 NW6       30.46R
CRYSTAL        FAIR      42  17  36 VRB5      30.45R
BLAINE         PTSUNNY   41  19  42 CALM      30.44R
LAKEVILLE      FAIR      39  18  41 N6        30.45R
EDEN PRAIRIE   FAIR      43  17  35 NW7       30.45R
SOUTH ST PAUL  FAIR      42  15  34 N6        30.45S
LAKE ELMO      FAIR      39  18  41 N6        30.45R
$$
MNZ001>005-007-008-013>017-022>024-027-028-191600-
   Northwest Minnesota

CITY           SKY/WX    TMP DP  RH WIND       PRES   REMARKS
BEMIDJI        FAIR      43  16  32 W3        30.41R
HALLOCK        FAIR      45  27  49 S3        30.40S
ROSEAU         FAIR      43  21  42 SW3       30.40S
WARROAD        FAIR      46  21  36 SW5       30.40S
THIEF RVR FALL FAIR      42  22  44 SW6       30.42R
CROOKSTON      FAIR      39  27  60 SW3       30.42S
FOSSTON        FAIR      45  21  39 SW7       30.41S
DETROIT LAKES  FAIR      43  19  39 SW6       30.42S
MOORHEAD       FAIR      39  32  75 CALM      30.43S
PARK RAPIDS    FAIR      41  20  43 CALM      30.41R
MAHNOMEN       FAIR      44  22  41 SW8       30.41S
$$
MNZ006-009>011-018-025>026-191600-
   North Central Minnesota

CITY           SKY/WX    TMP DP  RH WIND       PRES   REMARKS
BAUDETTE       FAIR      42  21  43 CALM      30.39S
FLAG ISLAND    FAIR      30  23  74 SE5       30.39S WCI  25
INTL FALLS     FAIR      45  13  27 W7        30.40S
WASKISH        FAIR      43  21  42 CALM      30.41R
BIG FORK       FAIR      45  16  31 CALM      30.40R
LONGVILLE      FAIR      43  14  31 SW3       30.41R
GRAND RAPIDS   FAIR      41  16  36 CALM      30.42R
CRANE LAKE     FAIR      39  14  35 CALM      30.42S
ORR            FAIR      41  10  28 CALM      30.38R
COOK           FAIR      43  16  33 CALM      30.40S
WALKER         FAIR      44  14  29 CALM      30.41R
$$
MNZ012-019>021-037-191600-
   Northeast Minnesota

CITY           SKY/WX    TMP DP  RH WIND       PRES   REMARKS
DULUTH         FAIR      45  16  31 W3        30.39S
ELY            FAIR      39  12  33 CALM      30.39S
HIBBING        FAIR      43  16  33 NW3       30.39S
EVELETH        FAIR      44  15  32 W5        30.40S
DULUTH HARBOR  FAIR      43  19  39 S3        30.42S
TWO HARBORS    FAIR      52  23  32 N5        30.37S
SILVER BAY     FAIR      46  14  27 N6        30.36S
GRAND MARAIS     N/A     38  25  59 SW12      30.38S
G MARAIS ARPRT FAIR      41   7  24 N6        30.35R
$$
MNZ029>031-032-039>041-046>048-054>057-064-191600-
   West Central Minnesota

CITY           SKY/WX    TMP DP  RH WIND       PRES   REMARKS
FERGUS FALLS   FAIR      39  34  81 S6        30.42S
WHEATON        SUNNY     43  32  65 S6        30.46R
MORRIS         SUNNY     41  25  52 SW6       30.45R
ALEXANDRIA     FAIR      44  22  41 W13       30.44R
ELBOW LAKE     FAIR      41  35  79 SW8       30.44S
WADENA         FAIR      39  23  52 SW7       30.42
GLENWOOD       FAIR      43  25  49 SW8       30.45R
APPLETON       SUNNY     43  21  42 S7        30.45R
BENSON         SUNNY     43  25  49 SW7       30.47R
ORTONVILLE     SUNNY     43  28  56 S6        30.45R
MADISON        SUNNY     39  30  70 SW5       30.45R
WILLMAR        FAIR      39  23  52 SW6       30.49R
$$
MNZ033>034-036-042>043-049>051-058-059-191600-
   Central Minnesota

CITY           SKY/WX    TMP DP  RH WIND       PRES   REMARKS
ST CLOUD       FAIR      45  19  35 W9        30.45R
SAUK CENTRE    FAIR      42  23  47 SW10      30.45R
PAYNESVILLE    FAIR      43  25  49 W7        30.46S
AITKIN         FAIR      43  18  36 W5        30.41R
PINE RIVER     FAIR      41  16  36 W5        30.44R
BRAINERD       FAIR      45  17  32 W9        30.43R
STAPLES        FAIR      39  21  48 W5        30.43R
LONG PRAIRIE   FAIR      41  21  45 S12       30.44S
LITTLE FALLS   FAIR      41  10  28 W7        30.45R
LITCHFIELD     FAIR      45  21  39 W5        30.46S
BUFFALO        FAIR      42  16  35 W5        30.47R
MAPLE LAKE     FAIR      44  20  39 W5        30.47R
HUTCHINSON     FAIR      40  24  52 CALM      30.48R
$$
MNZ037-044-045-052-053-191600-
   East Central Minnesota

CITY           SKY/WX    TMP DP  RH WIND       PRES   REMARKS
PRINCETON      FAIR      46  19  34 W6        30.45R
MORA           FAIR      45  19  36 NW7       30.44S
RUSH CITY      FAIR      41  19  40 W5        30.44R
MOOSE LAKE     FAIR      43  19  39 NW6       30.40R
HINCKLEY       FAIR      45  19  36 NW3       30.43R
CLOQUET        FAIR      45  12  26 W7        30.40R
MCGREGOR       FAIR      45  18  33 NW6       30.42R
$$
MNZ071>073-080-081-089-090-097-098-191600-
   Southwest Minnesota

CITY           SKY/WX    TMP DP  RH WIND       PRES   REMARKS
MONTEVIDEO     SUNNY     45  19  36 SW6       30.47R
GRANITE FALLS  SUNNY     36  29  75 CALM      30.49R
CANBY          SUNNY     42  22  45 SW5       30.47R
MARSHALL       SUNNY     33  24  69 CALM      30.48R
REDWOOD FALLS  SUNNY     40  17  39 NW3       30.47R
OLIVIA         SUNNY     41  28  60 CALM      30.47R
PIPESTONE      SUNNY    N/A N/A N/A SE3       30.44R
WINDOM           N/A     34  12  40 CALM      30.46R
WORTHINGTON    SUNNY     27  19  72 NW3       30.47R
JACKSON        SUNNY     30  19  64 CALM      30.46R
TRACY          SUNNY     37  19  48 CALM      30.46R
SLAYTON        SUNNY     29  20  69 CALM      30.46R
$$
MNZ065>067-074>077-082>085-091>093-191600-
   South Central Minnesota

CITY           SKY/WX    TMP DP  RH WIND       PRES   REMARKS
MANKATO        FAIR      33  20  58 N5        30.48R WCI  29
NEW ULM        SUNNY     39  19  45 CALM      30.47R
ST JAMES       SUNNY     32  19  59 CALM      30.48R
FAIRMONT       SUNNY     29  19  66 NW5       30.48R WCI  24
GLENCOE        FAIR      39  21  48 NW5       30.47R
OWATONNA       FAIR      27  19  74 CALM      30.45R
WASECA         FAIR      32  25  74 CALM      30.48R
ALBERT LEA     FAIR      32  16  51 N6        30.45R WCI  26
$$
MNZ078>079-086>088-094>096-191600-
   Southeast Minnesota

CITY           SKY/WX    TMP DP  RH WIND       PRES   REMARKS
ROCHESTER      FAIR      31  23  72 NW9       30.43R WCI  23
RED WING       FAIR      39  16  38 CALM      30.44R
STANTON        FAIR      32  22  66 S3        30.45R
DODGE CENTER   FAIR      32  19  59 N9        30.44R WCI  24
WINONA         FAIR      34  27  75 NW5       30.42R WCI  30
AUSTIN         FAIR      30  19  64 N7        30.44R WCI  23
PRESTON        FAIR      32  21  63 N9        30.42R WCI  24
$$
ABBREVIATIONS USED IN REMARKS
   TC - TEMPERATURES IN CELSIUS
  WCI - WIND CHILL INDEX
   HX - HEAT INDEX
  VSB - VISIBILITY
$$




USA.gov is the U.S. government's official web portal to all federal, state and local government web resources and services.